Temperature
11 11 11 11 12 11 12 12 12 12 12 12 12 12 12 11 11 11 11 11 11 11 11 11 11 11 11 10 10 11 11 11 11 11 11 10 10 10 10 10 10 10 10
11 11 11 11 11 11 11 11 11 11 11 11 11 11 11 11 11 11 11 11 11 10 10 10 10 10 10 10 10 10 10 10 10 10 10 10 10 10 10 10 10 10 10
10 10 10 10 10 10 11 11 11 11 11 11 11 11 11 11 10 10 10 10 10 10 10 10 10 10 10 10 10 9 9 9 9 9 9 9 9 9 9 9 9 9 9
9 10 10 10 10 10 10 10 10 10 10 10 10 10 10 10 10 10 10 10 10 10 10 10 10 10 10 9 9 9 9 9 9 9 8 8 8 9 8 9 9 9 9
9 9 9 9 9 9 9 9 9 10 10 10 10 10 10 10 10 10 10 9 9 10 10 10 10 10 10 9 9 9 9 8 8 8 8 8 8 8 8 8 8 8 8
8 8 8 8 8 8 8 9 9 9 9 9 9 9 9 9 9 9 9 9 9 9 9 9 9 9 9 9 9 9 8 8 8 8 8 7 7 7 7 7 7 7 8
8 8 8 8 8 8 8 8 8 8 8 8 8 8 8 8 8 8 8 8 8 9 9 9 9 9 9 8 8 8 8 8 7 7 7 7 7 7 7 7 7 7 7
7 7 7 7 7 7 7 7 7 8 8 8 8 8 8 8 8 8 8 8 8 8 8 8 8 8 8 8 8 8 8 7 7 7 7 7 6 6 6 6 6 6 6
6 6 6 6 6 7 7 7 7 7 7 7 7 7 7 7 7 7 8 8 8 8 8 7 8 7 7 7 7 7 7 7 7 6 6 6 6 6 6 6 6 6 6
6 6 6 6 6 6 6 6 6 6 6 6 6 6 7 7 7 7 7 7 7 7 7 7 7 7 7 7 7 7 7 7 6 6 6 6 6 6 6 6 6 5 5
5 5 5 5 5 5 5 5 5 6 6 6 6 6 6 6 6 6 6 6 6 7 7 6 6 6 6 6 6 6 6 6 6 6 6 5 5 5 5 5 5 5 5
4 4 4 5 5 5 5 5 5 5 5 5 5 5 6 5 6 5 5 6 6 6 6 6 6 6 6 6 6 6 6 6 5 5 5 5 5 5 5 5 4 4 4
4 4 4 4 4 4 4 4 4 4 4 5 5 5 5 5 5 5 5 5 5 5 5 5 5 5 5 5 5 5 5 5 5 5 5 5 4 4 4 4 4 4 4
3 3 3 3 3 3 4 4 4 4 4 4 4 4 4 4 4 4 4 4 4 4 4 5 5 5 4 5 4 4 4 5 4 4 4 4 4 4 4 4 4 4 3
3 3 3 3 3 3 3 3 3 3 3 3 3 3 3 3 3 3 3 3 3 3 3 4 4 4 4 4 4 4 4 4 4 4 4 4 3 3 3 3 3 3 3
2 2 2 2 2 2 2 2 2 2 2 2 2 3 3 3 3 3 3 3 3 3 3 3 3 3 3 3 3 3 3 3 3 3 3 3 3 3 3 2 2 2 2
1 2 2 2 2 2 2 2 2 2 2 2 2 2 2 2 2 2 2 2 2 2 2 3 3 3 3 3 3 3 3 3 3 3 3 3 3 2 2 2 2 2 2
1 1 1 1 1 1 1 1 1 1 1 1 1 1 2 2 2 2 2 2 2 2 1 2 2 2 2 2 2 2 2 2 2 2 2 2 2 2 1 1 1 1 1
0 0 0 0 0 0 0 0 0 1 1 1 1 1 1 1 1 1 1 1 1 1 1 1 1 2 2 2 2 2 2 2 2 2 2 2 2 1 1 1 1 1 1
-0 -0 -0 -0 -0 -0 -0 -0 -0 -0 0 0 0 0 0 0 0 0 0 0 0 0 0 0 0 1 1 1 1 1 1 1 1 1 1 1 1 1 1 1 1 1 1
-1 -1 -1 -1 -1 -1 -1 -1 -1 -1 -1 -0 -0 -0 -0 -0 -0 -0 -0 -0 -0 -0 -0 -0 -0 -0 -0 -0 -0 -0 -0 0 0 0 1 0 0 1 1 0 0 0 0
-1 -1 -1 -1 -1 -1 -1 -1 -1 -1 -1 -1 -1 -1 -1 -1 -1 -1 -1 -1 -1 -1 -1 -1 -1 -1 -1 -1 -1 -1 -1 -1 -1 -1 -1 -0 -0 0 0 -0 0 0 -0
-1 -1 -2 -2 -2 -2 -2 -2 -2 -1 -1 -1 -1 -1 -1 -1 -1 -1 -1 -2 -2 -2 -2 -2 -2 -1 -1 -1 -2 -2 -2 -2 -2 -1 -1 -1 -1 -1 -0 -0 -0 -0 -1
-2 -2 -2 -2 -2 -2 -2 -2 -2 -2 -2 -2 -2 -2 -2 -2 -2 -2 -2 -2 -2 -2 -2 -2 -2 -2 -2 -2 -2 -2 -2 -2 -2 -2 -2 -2 -1 -1 -1 -1 -1 -1 -1
-2 -2 -3 -3 -3 -2 -3 -3 -3 -3 -2 -2 -2 -2 -2 -2 -2 -2 -3 -3 -2 -2 -2 -2 -2 -2 -2 -2 -3 -3 -3 -3 -3 -2 -3 -3 -2 -2 -1 -1 -1 -1 -2
-3 -3 -3 -3 -3 -3 -3 -3 -3 -3 -3 -3 -3 -3 -3 -3 -3 -3 -3 -3 -3 -3 -3 -3 -3 -3 -3 -3 -3 -3 -3 -3 -4 -4 -3 -3 -3 -3 -3 -2 -2 -2 -2
Wind_Speed
3 3 4 4 4 4 4 3 3 3 3 4 4 4 4 4 3 2 1 2 1 0 1 1 2 2 2 2 2 2 2 2 2 2 1 0 1 2 2 3 4 5 5
3 3 3 4 4 3 3 2 2 3 2 3 3 3 3 3 3 3 2 1 1 1 1 1 0 1 1 2 1 1 1 3 2 1 0 1 1 2 2 3 4 4 5
3 3 3 3 3 3 3 3 3 3 3 3 2 2 3 3 3 3 3 2 1 1 1 1 1 1 0 1 1 1 2 2 1 0 1 2 2 3 3 4 4 4 5
4 3 2 2 3 3 3 2 2 2 2 2 1 1 2 2 3 3 3 3 3 2 2 1 2 1 1 1 0 1 1 1 1 1 2 3 3 3 4 4 4 5 6
4 3 2 2 3 3 3 2 1 2 2 1 1 1 1 1 2 3 3 3 3 2 2 2 2 2 1 1 1 1 1 1 1 1 3 4 4 4 5 5 5 6 6
4 3 3 3 3 2 2 2 2 2 1 1 1 1 1 1 2 2 1 2 2 1 2 2 2 2 2 2 2 2 2 2 2 3 3 4 4 5 5 6 6 6 6
4 3 3 2 2 1 1 1 1 2 1 1 1 1 1 1 1 1 1 1 1 1 1 2 2 2 1 1 2 3 3 4 4 4 5 5 5 5 6 6 6 6 7
3 3 3 1 1 1 2 2 1 1 1 1 1 1 0 1 0 0 0 1 0 1 1 1 1 1 1 1 3 3 4 5 5 6 6 6 6 6 6 6 7 7 7
3 2 2 2 1 1 0 0 1 1 1 0 1 2 2 2 1 1 0 0 1 1 0 1 1 0 1 1 2 3 4 5 6 7 6 6 6 7 7 7 7 7 8
2 2 1 1 1 0 0 1 0 1 1 1 0 0 0 1 2 0 1 1 0 0 1 1 0 0 1 1 2 3 4 5 6 7 7 7 7 8 8 8 8 8 9
2 2 1 1 0 0 1 1 1 1 1 1 1 1 1 1 1 1 1 1 1 1 1 1 0 0 1 1 3 4 4 5 6 6 7 7 8 9 9 9 9 9 9
2 2 2 1 1 1 1 1 1 1 2 1 1 1 2 1 1 1 2 2 2 2 1 1 0 1 0 1 3 5 5 5 5 5 6 7 9 9 9 10 10 10 10
2 3 2 2 2 2 1 1 1 2 2 2 2 2 2 2 1 2 2 1 1 1 1 1 1 0 1 2 4 4 5 5 5 5 6 7 8 8 9 9 10 10 11
3 3 2 2 2 2 2 1 1 2 2 2 2 2 2 2 2 2 2 2 1 2 2 2 1 1 1 2 3 4 4 5 5 6 7 7 8 8 9 9 10 10 11
3 3 2 2 2 2 2 1 2 2 2 2 3 3 2 2 2 2 2 3 3 2 3 2 1 1 2 3 3 3 4 5 6 6 6 7 8 8 9 9 9 10 10
3 3 3 3 2 2 2 2 2 2 2 2 2 2 3 2 2 2 2 2 3 3 3 2 2 1 2 3 4 4 4 4 5 5 6 7 8 8 8 8 9 10 10
3 3 3 3 3 3 2 2 3 3 3 3 3 3 3 3 3 3 2 2 2 3 4 3 2 1 1 2 3 4 4 4 4 6 7 7 8 9 8 8 9 10 10
3 3 3 3 3 3 3 3 3 3 3 3 3 3 4 3 3 3 3 3 3 3 4 4 2 2 2 2 1 2 3 4 5 6 6 7 8 8 8 8 9 9 9
3 2 2 2 3 3 3 3 3 4 4 4 4 4 4 3 3 3 3 3 3 3 3 3 3 2 1 1 1 1 2 3 4 5 6 6 7 8 8 9 10 10 9
2 2 2 3 3 3 3 3 3 3 3 3 3 3 4 4 4 4 4 4 4 3 3 3 3 2 2 1 1 1 2 2 3 4 5 5 7 8 8 9 10 10 10
2 2 2 2 2 2 2 2 3 3 3 3 2 3 3 4 5 4 4 4 4 4 3 3 3 2 2 1 2 2 3 3 3 2 2 3 5 5 6 8 9 9 9
2 2 2 2 2 2 3 3 2 2 2 3 3 2 3 4 4 5 6 5 5 5 4 4 3 4 4 3 2 2 2 3 3 1 2 4 3 4 5 6 9 9 10
2 2 2 2 2 3 3 3 2 1 2 2 2 2 2 2 3 2 4 4 5 5 5 5 5 5 4 4 3 3 3 3 4 3 2 4 3 4 5 8 10 9 10
1 2 2 2 2 3 4 3 2 1 1 2 2 2 3 3 3 3 3 3 3 4 4 4 5 5 5 4 4 4 3 3 3 3 2 3 3 4 5 6 9 9 9
2 2 2 2 2 3 4 4 2 1 1 2 2 2 3 3 5 4 3 3 3 4 4 5 5 5 5 4 3 1 1 2 4 3 2 2 2 4 4 4 5 7 8
1 2 2 2 2 3 4 4 2 1 1 2 2 2 3 3 4 4 3 4 4 4 3 2 2 2 2 3 3 2 3 3 3 3 1 1 2 2 3 3 2 5 6
Wind_Direction
36 41 38 37 40 43 51 61 76 82 80 88 93 103 101 102 98 95 98 97 83 44 222 193 187 183 168 167 169 171 174 164 153 137 139 68 11 23 11 356 355 354 355
55 54 50 41 35 39 47 69 91 92 79 87 89 98 105 104 94 88 77 93 92 52 357 337 272 243 203 185 180 197 192 178 166 158 173 305 325 342 341 340 346 348 349
63 63 56 41 30 37 52 69 72 85 90 81 77 85 95 91 90 85 82 72 65 16 339 343 331 313 289 207 216 219 186 161 155 143 289 307 311 316 320 331 335 335 337
58 63 57 36 28 49 61 73 81 89 95 100 82 48 72 92 89 83 82 77 71 44 5 9 332 341 26 51 81 159 152 161 195 264 292 297 303 306 312 317 317 318 320
53 61 55 40 43 55 56 57 67 92 114 112 114 78 55 81 92 86 80 75 78 65 35 10 359 348 355 6 1 324 263 238 241 276 290 288 293 295 299 301 302 309 315
50 57 57 42 49 57 53 58 65 56 99 127 114 86 61 100 93 93 92 71 76 85 64 47 27 356 337 326 330 305 292 283 275 282 290 285 287 292 294 296 302 308 312
48 53 47 46 46 66 65 64 71 61 38 48 103 59 7 80 120 136 99 93 71 86 92 76 53 36 360 318 310 299 290 287 285 285 289 289 288 290 293 294 302 306 308
36 47 50 45 40 53 57 57 63 76 20 52 125 131 243 291 282 167 137 168 206 64 65 80 68 42 1 330 302 294 288 289 287 285 287 292 291 288 289 294 297 298 302
22 36 44 47 36 80 143 95 98 148 221 339 80 148 163 214 275 310 248 203 214 168 32 34 94 327 290 300 295 294 296 291 289 288 290 289 288 288 290 294 296 299 301
8 13 34 45 31 20 276 248 186 211 194 223 230 27 128 151 155 247 301 302 312 245 241 273 306 53 323 295 290 292 294 291 289 292 296 293 291 290 291 295 296 297 300
353 351 7 31 337 304 269 270 251 221 214 216 209 162 134 45 95 162 239 285 313 286 270 260 259 32 331 316 301 299 296 293 294 295 296 295 292 291 292 295 300 299 299
329 332 338 342 300 275 263 259 239 222 223 219 223 190 162 161 174 171 214 235 266 287 294 266 257 295 292 302 288 293 290 293 292 295 296 294 292 292 295 296 297 300 299
302 300 306 290 278 267 261 242 230 236 227 217 223 228 209 205 181 171 183 221 250 290 298 281 260 296 338 320 294 295 288 289 292 296 295 294 295 297 298 297 295 296 299
273 287 292 285 280 278 272 245 237 242 236 226 230 231 231 221 200 193 180 182 243 271 261 260 262 247 315 318 305 310 304 299 293 292 292 292 293 293 293 294 294 293 295
284 287 284 279 281 272 258 245 239 239 236 235 233 229 231 235 219 215 200 193 190 240 255 242 248 271 320 319 312 323 317 307 302 299 296 294 293 293 292 293 297 294 294
288 286 285 274 273 271 256 235 243 237 231 246 234 224 232 231 229 216 206 214 209 213 248 245 237 259 288 307 319 326 307 308 310 304 302 300 299 297 295 296 297 295 292
289 279 276 271 267 263 258 241 243 233 230 246 245 234 240 232 228 225 212 212 217 212 244 271 263 280 259 272 315 317 311 304 306 306 306 304 304 300 295 296 299 299 295
292 284 280 275 268 262 250 236 239 237 226 232 242 237 243 233 230 228 213 215 223 217 222 257 272 281 266 254 283 300 320 319 311 304 304 302 302 302 301 300 304 305 301
301 301 290 273 273 268 258 247 238 239 233 228 233 233 234 225 229 231 221 217 223 225 212 225 257 271 278 293 301 298 303 306 313 308 305 299 300 303 303 302 303 303 302
299 296 291 282 275 273 268 259 248 246 244 239 231 231 232 226 225 225 229 223 216 216 217 219 242 260 267 273 260 277 302 292 302 308 311 310 309 308 306 303 303 302 301
300 291 291 295 294 279 274 257 246 238 237 244 247 241 238 233 230 229 235 225 214 213 219 225 238 254 256 260 267 280 287 301 294 284 303 306 307 305 304 301 302 301 298
307 306 298 298 299 294 290 277 252 228 232 234 243 250 249 248 251 254 261 253 233 220 220 223 235 236 246 247 269 271 285 300 295 290 303 297 293 288 295 295 298 301 301
309 316 311 312 306 296 297 295 288 256 240 242 241 244 260 264 266 249 268 273 269 263 248 232 231 236 238 231 235 251 256 274 277 273 291 286 284 280 290 292 297 299 302
299 304 306 315 316 310 313 314 302 316 285 266 255 243 248 265 259 239 230 245 254 260 260 246 228 234 241 234 226 241 255 283 279 273 261 274 288 284 296 298 300 305 310
316 309 306 306 310 308 313 314 319 305 296 287 271 258 251 255 262 252 234 239 257 266 276 270 266 258 259 265 266 231 253 283 291 282 251 258 283 299 293 286 302 310 313
308 319 319 315 303 299 309 311 317 292 294 298 292 280 270 259 266 261 236 230 246 257 254 281 300 300 286 280 277 236 222 249 281 280 242 263 280 313 305 284 295 318 317
Height
1505 1505 1506 1506 1507 1508 1509 1509 1511 1512 1513 1514 1516 1517 1519 1520 1522 1522 1524 1525 1526 1527 1528 1529 1529 1530 1531 1531 1531 1532 1532 1532 1532 1532 1532 1532 1532 1532 1532 1532 1532 1532 1531
1503 1503 1503 1504 1505 1505 1506 1507 1509 1510 1511 1512 1514 1515 1517 1518 1519 1521 1522 1523 1524 1525 1526 1527 1527 1528 1529 1529 1530 1530 1530 1530 1530 1530 1530 1530 1530 1530 1530 1530 1530 1530 1529
1501 1501 1501 1502 1503 1503 1504 1505 1506 1508 1509 1510 1511 1513 1514 1515 1517 1518 1519 1520 1522 1523 1524 1525 1525 1526 1527 1527 1528 1528 1528 1528 1528 1528 1528 1528 1528 1528 1528 1528 1527 1527 1527
1498 1499 1499 1500 1500 1501 1502 1503 1504 1505 1506 1508 1509 1510 1512 1513 1514 1516 1517 1518 1519 1520 1521 1522 1523 1524 1524 1525 1525 1525 1525 1525 1525 1525 1526 1526 1526 1526 1526 1525 1525 1525 1524
1496 1497 1497 1497 1498 1499 1499 1501 1501 1503 1504 1505 1506 1508 1509 1510 1511 1513 1514 1515 1517 1518 1518 1519 1520 1521 1522 1522 1522 1523 1523 1523 1523 1523 1523 1523 1523 1523 1523 1523 1522 1522 1521
1494 1495 1495 1495 1496 1497 1497 1499 1499 1500 1501 1503 1504 1505 1506 1507 1508 1509 1511 1512 1514 1515 1515 1516 1517 1518 1518 1519 1519 1519 1520 1520 1520 1520 1521 1521 1521 1521 1520 1520 1519 1519 1518
1492 1493 1493 1493 1494 1495 1496 1496 1497 1498 1499 1500 1502 1503 1504 1505 1506 1507 1508 1509 1510 1511 1512 1513 1514 1515 1515 1515 1516 1516 1517 1517 1517 1517 1518 1518 1518 1518 1518 1517 1517 1516 1515
1490 1490 1491 1491 1492 1493 1493 1494 1495 1495 1496 1497 1499 1500 1501 1503 1502 1503 1505 1506 1507 1508 1509 1510 1511 1511 1512 1512 1513 1513 1514 1514 1514 1514 1515 1514 1514 1515 1515 1514 1514 1513 1512
1487 1488 1489 1489 1489 1490 1491 1491 1492 1493 1494 1495 1496 1497 1498 1498 1499 1500 1501 1502 1504 1505 1506 1507 1507 1508 1508 1509 1509 1510 1510 1510 1511 1511 1511 1511 1511 1511 1511 1511 1510 1509 1508
1485 1485 1486 1486 1487 1487 1488 1489 1490 1490 1491 1492 1493 1493 1495 1495 1496 1496 1498 1499 1500 1501 1502 1503 1503 1504 1505 1505 1505 1506 1506 1506 1507 1507 1507 1507 1507 1507 1507 1507 1506 1505 1504
1482 1482 1483 1483 1484 1484 1485 1486 1486 1487 1488 1489 1489 1490 1491 1492 1493 1494 1494 1495 1497 1498 1498 1499 1500 1500 1501 1501 1501 1502 1502 1502 1502 1502 1502 1503 1503 1503 1502 1502 1502 1501 1500
1479 1480 1480 1480 1480 1481 1481 1482 1483 1484 1485 1485 1486 1487 1488 1489 1489 1490 1490 1491 1493 1494 1495 1495 1496 1496 1497 1497 1497 1498 1498 1498 1498 1498 1498 1498 1498 1498 1497 1497 1497 1496 1495
1476 1476 1477 1477 1477 1478 1478 1479 1479 1480 1481 1481 1482 1483 1484 1485 1486 1487 1488 1488 1489 1490 1491 1492 1492 1492 1493 1493 1493 1494 1494 1494 1493 1493 1493 1493 1493 1493 1492 1492 1492 1491 1490
1473 1474 1474 1474 1474 1474 1475 1475 1475 1476 1477 1478 1478 1479 1480 1482 1483 1484 1484 1485 1485 1486 1487 1488 1488 1489 1489 1489 1490 1489 1489 1489 1489 1489 1488 1488 1488 1488 1487 1487 1486 1486 1485
1470 1470 1470 1470 1471 1471 1471 1472 1472 1472 1473 1474 1474 1475 1476 1477 1479 1480 1481 1482 1483 1482 1482 1483 1484 1485 1485 1485 1485 1485 1484 1484 1484 1484 1484 1483 1483 1482 1482 1481 1481 1480 1480
1467 1467 1467 1467 1467 1467 1467 1468 1468 1469 1469 1470 1471 1471 1472 1473 1474 1476 1477 1478 1479 1480 1479 1479 1480 1480 1481 1481 1481 1480 1480 1480 1479 1479 1479 1478 1478 1477 1476 1476 1475 1475 1474
1464 1463 1463 1463 1463 1464 1464 1464 1464 1465 1465 1466 1467 1467 1468 1469 1470 1471 1472 1473 1474 1475 1475 1474 1476 1476 1476 1477 1476 1476 1476 1475 1475 1475 1474 1473 1472 1472 1471 1471 1470 1469 1468
1460 1460 1460 1460 1460 1460 1460 1460 1460 1461 1461 1462 1462 1463 1464 1465 1466 1466 1468 1469 1470 1471 1471 1470 1471 1471 1472 1472 1472 1472 1471 1471 1470 1470 1469 1468 1467 1466 1466 1465 1465 1464 1463
1457 1457 1457 1457 1457 1457 1457 1457 1457 1457 1457 1457 1458 1458 1459 1460 1461 1462 1463 1464 1465 1466 1466 1466 1466 1466 1466 1467 1467 1467 1467 1467 1466 1465 1464 1463 1462 1462 1461 1460 1459 1458 1458
1454 1454 1454 1454 1454 1453 1453 1453 1453 1454 1454 1454 1454 1455 1455 1456 1457 1458 1458 1459 1460 1461 1462 1462 1461 1462 1462 1462 1462 1461 1461 1461 1461 1460 1459 1459 1458 1457 1456 1455 1454 1453 1452
1452 1451 1451 1451 1450 1450 1450 1450 1450 1450 1450 1451 1451 1452 1452 1452 1453 1454 1454 1455 1456 1456 1457 1457 1457 1457 1457 1457 1457 1457 1456 1456 1456 1455 1454 1454 1453 1452 1451 1450 1449 1448 1447
1449 1449 1448 1448 1448 1447 1447 1447 1447 1447 1447 1448 1448 1448 1449 1449 1449 1450 1451 1451 1452 1452 1452 1453 1453 1453 1453 1453 1454 1453 1452 1451 1451 1451 1450 1449 1449 1447 1446 1445 1444 1443 1442
1446 1446 1446 1445 1445 1445 1445 1445 1444 1445 1445 1445 1445 1445 1445 1445 1446 1446 1447 1447 1447 1448 1449 1449 1449 1449 1449 1450 1450 1449 1449 1448 1447 1447 1446 1444 1444 1442 1442 1440 1440 1439 1438
1443 1443 1444 1443 1443 1443 1443 1442 1442 1442 1442 1442 1442 1442 1442 1442 1443 1443 1443 1443 1444 1444 1445 1445 1445 1446 1446 1446 1446 1446 1446 1445 1444 1444 1443 1440 1439 1438 1437 1436 1436 1435 1433
1441 1441 1442 1441 1441 1441 1440 1440 1440 1439 1439 1439 1439 1439 1439 1439 1439 1440 1440 1440 1440 1440 1441 1442 1442 1442 1442 1443 1443 1443 1442 1441 1439 1439 1439 1437 1435 1434 1432 1432 1431 1431 1429
1440 1440 1440 1440 1439 1439 1438 1438 1438 1437 1437 1436 1436 1436 1436 1436 1436 1436 1436 1436 1436 1437 1437 1438 1438 1438 1438 1439 1439 1439 1438 1437 1436 1435 1435 1434 1433 1432 1429 1428 1427 1427 1425